Regional Weather Roundup
Issued by NWS Cleveland, OH

Home | Current Version | Previous Version | Graphics & Text | Print | Product List | Glossary On
Versions: 1 2 3 4 5 6 7 8 9 10 11 12 13 14 15 16 17 18 19 20 21 22 23 24 25 26 27 28 29 30 31 32 33 34 35 36 37 38 39 40 41 42 43 44 45 46 47 48 49 50
000
ASUS41 KCLE 190210
RWRCLE
OHIO REGIONAL WEATHER ROUNDUP
NATIONAL WEATHER SERVICE WILMINGTON, OH
1000 PM EDT THU SEP 18 2014

NOTE: "FAIR" INDICATES FEW OR NO CLOUDS BELOW 12,000 FEET WITH NO
SIGNIFICANT WEATHER AND/OR OBSTRUCTIONS TO VISIBILITY.

OHZ001>008-015>018-024>027-034-035-043-044-190300-
   NORTHWEST OHIO

CITY           SKY/WX    TMP DP  RH WIND       PRES   REMARKS
DEFIANCE       CLEAR     59  51  75 E5        30.17R
FINDLAY        CLEAR     58  51  78 E7        30.16R
TOLEDO EXPRESS CLEAR     56  53  90 NE7       30.17R
TOLEDO METCALF CLEAR     59  52  77 NE6       30.18R
LIMA           CLEAR     55  50  83 E7        30.15R
$$

OHZ009>014-019>023-028>033-038-089-190300-
   NORTHEAST OHIO

CITY           SKY/WX    TMP DP  RH WIND       PRES   REMARKS
CLE-HOPKINS    PTCLDY    58  50  75 E5        30.18S
CLE-LAKEFRONT  CLOUDY    60  52  74 NE5       30.16S
CUY CO. ARPT   MOCLDY    57  52  82 E6        30.18R
LORAIN-ELYRIA  CLEAR     56  51  84 CALM      30.17R
ASHTABULA      MOCLDY    51  49  92 CALM      30.18R
AKRON-CANTON   CLEAR     54  48  80 NE7       30.17R
WOOSTER        CLEAR     53  49  86 NE7       30.18R
MANSFIELD      CLEAR     53  50  89 N6        30.17R
YOUNGSTOWN     CLEAR     52  48  86 NE3       30.17R
$$

OHZ042-051>053-060>062-070>072-077>081-190300-
  SOUTHWEST OHIO

CITY           SKY/WX    TMP DP  RH WIND       PRES   REMARKS
CINC-COVINGTON CLEAR     63  46  54 E8        30.11R
CINC-LUNKEN    CLEAR     54  52  93 CALM      30.12R
HAMILTON       CLEAR     53  51  93 CALM      30.12R
DAYTON         PTCLDY    58  49  72 NE6       30.14R
WRIGHT-PAT AFB CLEAR     56  49  79 CALM      30.13R
DAYTON GENERAL CLEAR     59  49  69 E5        30.12R
WILMINGTON     CLEAR     56  46  69 E5        30.13R
$$

OHZ036-037-039>041-045>050-054>059-063>069-073>076-082>088-190300-
  CENTRAL AND SOUTHEAST OHIO

CITY           SKY/WX    TMP DP  RH WIND       PRES   REMARKS
COLUMBUS       PTCLDY    62  49  62 NE10      30.14R
OSU AIRPORT    CLEAR     59  49  69 NE7       30.14R
BOLTON FIELD   CLEAR     53  48  81 CALM      30.14R
RICKENBACK AFB CLEAR     55  48  75 NE3       30.13R
NEWARK         CLEAR     57  50  77 NE3       30.14R
MARION         CLEAR     51  47  86 E5        30.16R
LANCASTER      CLEAR     50  47  89 CALM      30.14R
ZANESVILLE     MOCLDY    56  49  77 N5        30.14R
NEW PHILLY     CLEAR     56  51  84 N3        30.16R
$$


USA.gov is the U.S. government's official web portal to all federal, state and local government web resources and services.